Location: Strada George Coșbuc
(47.6577°N, 23.5639°E)
Time: 23:22:44
(UTC+02:00)

ISS - Pass Details

Date: 04 October 2017
Orbit: 402 x 407 km, 51.6° (Epoch: 21 November)

Event Time Altitude Azimuth Distance (km) Brightness Sun altitude
Rises 20:40:33 0° 281° (WNW) 2,334 1.8 -17.8°
Reaches altitude 10° 20:42:43 10° 290° (WNW) 1,475 0.3 -18.2°
Maximum altitude 20:45:52 39° 1° (N) 630 -2.8 -18.7°
Enters shadow 20:46:24 36° 28° (NNE) 672 -2.9 -18.8°
